[[{"header":{"parameterUnit":"m.s-1","parameterCategory":1,"la1":30.2991,"la2":30.254,"lo1":-89.0895,"lo2":-89.0444,"dx":0.0017,"dy":0.0017,"nx":28,"ny":28,"refTime":"2022-11-05T21:00:00:Z","depth":0,"parameterNumber":2,"parameterNumberName":"U-component_of_WINDS"},"data":[0,0,0,0,0,0,0,0,0,0,0,0,0,0,0,0,0,0,0,0,0,0,0,0,0,0,0,0,0,0,0,0,0,0,0,0,0,0,0,0,0,0,0,0,0,0,0,0,0,0,0,0,0,0,0,0,0,0,-2.7731,-2.773,0,-2.7684,-2.7684,-2.7683,-2.7619,-2.7618,-2.7616,-2.7615,-2.7569,-2.7569,-2.7569,0,0,0,0,0,0,0,0,0,0,0,0,0,-2.7768,-2.7768,-2.7731,-2.773,-2.773,-2.7684,-2.7684,-2.7683,-2.7619,-2.7618,-2.7616,-2.7615,-2.7569,-2.7569,-2.7569,0,0,0,0,0,0,0,0,0,0,0,0,0,-2.774,-2.7768,-2.7731,-2.7692,-2.7688,-2.7684,-2.7684,-2.7683,-2.7619,-2.7618,-2.7616,-2.7614,-2.7569,-2.7569,-2.7569,-2.7599,0,0,-2.7568,-2.7567,0,0,0,0,0,0,0,0,-2.7742,-2.7739,-2.7698,-2.7695,-2.769,-2.7656,-2.768,-2.7655,-2.762,-2.7645,-2.7615,-2.7614,-2.7599,-2.7596,-2.7591,-2.7597,-2.7595,-2.7568,-2.7567,-2.7567,-2.7567,0,0,0,0,0,0,0,-2.7744,-2.774,-2.7712,-2.7698,-2.7693,-2.7678,-2.7673,-2.7675,-2.7632,-2.7643,-2.7638,-2.7634,-2.7597,-2.7592,-2.759,-2.7594,-2.7568,-2.7567,-2.7567,-2.7567,-2.7627,-2.7629,0,0,0,0,0,0,-2.7751,-2.7742,-2.7714,-2.7711,-2.7713,-2.7679,-2.7673,-2.7668,-2.7632,-2.7625,-2.7635,-2.7631,-2.7593,-2.759,-2.7588,-2.7623,-2.7567,-2.7567,-2.7567,-2.7626,-2.7628,-2.763,0,0,0,0,0,0,-2.7752,-2.7749,-2.7716,-2.7725,-2.772,-2.768,-2.7676,-2.7668,-2.7663,-2.7626,-2.7618,-2.7637,-2.7592,-2.7588,-2.7598,-2.7621,-2.7567,-2.7566,-2.7623,-2.7626,-2.7629,-2.7694,0,0,0,0,0,0,-2.7754,-2.775,-2.776,-2.7726,-2.772,-2.7725,-2.7677,-2.7669,-2.7663,-2.7657,-2.7626,-2.7619,-2.759,-2.7598,-2.7597,-2.7619,-2.7566,-2.7621,-2.7625,-2.7628,-2.7689,-2.7698,-2.7706,0,0,0,0,0,-2.7755,-2.7779,-2.7761,-2.7758,-2.7731,-2.7726,-2.7723,-2.7688,-2.7665,-2.7675,-2.7652,-2.762,-2.7619,-2.76,-2.7598,-2.762,-2.7619,-2.7624,-2.7628,-2.7685,-2.7696,-2.7706,0,0,0,0,0,0,-2.7816,-2.7774,-2.7753,-2.7767,-2.7751,-2.7716,-2.7727,-2.7701,-2.7691,-2.7686,-2.7644,-2.7638,-2.7653,-2.7638,-2.7618,-2.765,-2.7615,-2.7619,-2.7659,-2.7669,-2.7678,-2.7681,-2.7566,0,0,0,0,0,-2.7831,-2.783,-2.7794,-2.781,-2.7803,-2.7767,-2.7764,-2.7739,-2.7721,-2.7714,-2.7691,-2.7675,-2.7672,-2.767,-2.7664,-2.7687,-2.7681,-2.7702,-2.7711,-2.7718,-2.7721,-2.7736,-2.7746,-2.7643,-2.7643,-2.7643,0,0,-2.7862,-2.7839,-2.7841,-2.7822,-2.7806,-2.7808,-2.7762,-2.7764,-2.7765,-2.7714,-2.7722,-2.7705,-2.7685,-2.7703,-2.7709,-2.769,-2.7749,-2.7723,-2.7729,-2.7728,-2.7741,-2.7751,-2.776,-2.7646,-2.7645,-2.7645,0,0,-2.7919,-2.7901,-2.7914,-2.79,-2.7878,-2.7855,-2.7859,-2.7828,-2.7815,-2.7823,-2.7786,-2.7787,-2.7781,-2.7769,-2.7762,-2.7821,-2.7792,-2.782,-2.7864,-2.7878,-2.7887,-2.7894,-2.7916,-2.7925,-2.7824,-2.7825,-2.7825,0,-2.796,-2.796,-2.7924,-2.7929,-2.7923,-2.7879,-2.7892,-2.7881,-2.7859,-2.7856,-2.7836,-2.783,-2.7813,-2.7828,-2.7843,-2.7839,-2.7843,-2.7823,-2.7888,-2.7895,-2.7901,-2.7922,-2.7931,-2.7828,-2.7828,-2.7827,-2.7827,0,-2.8013,-2.8014,-2.8027,-2.8007,-2.8003,-2.8012,-2.7979,-2.798,-2.7957,-2.7937,-2.7947,-2.7926,-2.7917,-2.7919,-2.7896,-2.7933,-2.7922,-2.7896,-2.7859,-2.7915,-2.7934,-2.7942,-2.7833,-2.7832,-2.7831,-2.783,0,0,-2.8103,-2.8067,-2.8072,-2.8064,-2.8039,-2.804,-2.8049,-2.8041,-2.8043,-2.803,-2.8038,-2.8036,-2.8013,-2.8006,-2.7982,-2.7995,-2.8046,-2.7967,-2.7966,-2.7983,-2.8088,-2.8108,-2.8118,-2.8027,-2.8029,-2.803,-2.809,0,-2.8156,-2.8169,-2.8139,-2.816,-2.8162,-2.8122,-2.8131,-2.8117,-2.81,-2.81,-2.8081,-2.8081,-2.8049,-2.8045,-2.8057,-2.8037,-2.8066,-2.8032,-2.8036,-2.8037,-2.8042,-2.8128,-2.8148,-2.8206,-2.8097,-2.8099,-2.81,0,-2.8218,-2.821,-2.8231,-2.8209,-2.8208,-2.8216,-2.8208,-2.8209,-2.8194,-2.8181,-2.8176,-2.8148,-2.8158,-2.8124,-2.8139,-2.8117,-2.8118,-2.8109,-2.811,-2.8109,-2.8071,-2.813,-2.8224,-2.8233,-2.8111,-2.811,-2.8109,0,-2.8283,-2.8278,-2.8291,-2.8286,-2.8259,-2.8266,-2.8256,-2.824,-2.8238,-2.8232,-2.8231,-2.8226,-2.8223,-2.8221,-2.8195,-2.8172,-2.8214,-2.8177,-2.8205,-2.8206,-2.8215,-2.8215,-2.8311,-2.8215,-2.8215,-2.8215,-2.8214,0,-2.8345,-2.836,-2.8321,-2.8329,-2.8346,-2.8313,-2.8331,-2.8317,-2.8304,-2.831,-2.8276,-2.8283,-2.8247,-2.8251,-2.8231,-2.8248,-2.8247,-2.8238,-2.8232,-2.8241,-2.8242,-2.824,-2.8236,-2.8217,-2.8216,-2.8216,-2.8215,0,-2.842,-2.8394,-2.8406,-2.8381,-2.8376,-2.839,-2.8369,-2.8377,-2.8359,-2.8368,-2.8368,-2.834,-2.8343,-2.8317,-2.8315,-2.8302,-2.8329,-2.8316,-2.8334,-2.833,-2.8361,-2.8359,-2.8459,-2.8472,-2.8367,-2.8368,-2.8369,0,-2.8461,-2.8472,-2.8449,-2.8451,-2.8443,-2.8446,-2.8445,-2.8414,-2.8415,-2.8402,-2.8412,-2.8413,-2.8411,-2.8419,-2.84,-2.8399,-2.8387,-2.8422,-2.8386,-2.8396,-2.8389,-2.8389,-2.8392,-2.843,-2.8431,-2.8432,-2.8433,0,-2.8537,-2.8524,-2.8523,-2.852,-2.852,-2.8515,-2.8508,-2.8512,-2.848,-2.8483,-2.8486,-2.8485,-2.8485,-2.8487,-2.8484,-2.8475,-2.845,-2.8445,-2.8452,-2.846,-2.8471,-2.8468,-2.8355,-2.8442,-2.8441,-2.844,-2.844,-2.844,-2.8596,-2.8606,-2.8592,-2.8594,-2.8586,-2.8582,-2.8589,-2.8573,-2.8575,-2.8573,-2.8555,-2.8563,-2.8553,-2.8546,-2.854,-2.8547,-2.853,-2.8539,-2.8542,-2.8545,-2.8551,-2.847,-2.8546,-2.8546,-2.8545,-2.8545,-2.8545,0,-2.8671,-2.8662,-2.8664,-2.8657,-2.8659,-2.8636,-2.8629,-2.8632,-2.8639,-2.8632,-2.8632,-2.8639,-2.8642,-2.8625,-2.8626,-2.8636,-2.8624,-2.8637,-2.8636,-2.8635,-2.8565,-2.856,-2.8646,-2.8646,-2.8646,-2.8646,-2.8646,-2.8646,-2.871,-2.8726,-2.8713,-2.8726,-2.8717,-2.8724,-2.8722,-2.872,-2.8714,-2.8722,-2.8725,-2.8714,-2.8704,-2.8705,-2.8709,-2.8704,-2.8707,-2.8724,-2.8715,-2.865,-2.864,-2.863,-2.8625,-2.8724,-2.8724,-2.8785,-2.8785,-2.8786]},{"header":{"parameterUnit":"m.s-1","parameterCategory":1,"la1":30.2991,"la2":30.254,"lo1":-89.0895,"lo2":-89.0444,"dx":0.0017,"dy":0.0017,"nx":28,"ny":28,"refTime":"2022-11-05T21:00:00:Z","depth":0,"parameterNumber":3,"parameterNumberName":"V-component_of_WINDS"},"data":[0,0,0,0,0,0,0,0,0,0,0,0,0,0,0,0,0,0,0,0,0,0,0,0,0,0,0,0,0,0,0,0,0,0,0,0,0,0,0,0,0,0,0,0,0,0,0,0,0,0,0,0,0,0,0,0,0,0,0.0323,0.0324,0,0.0378,0.0379,0.038,0.0461,0.0463,0.0464,0.0465,0.052,0.052,0.0521,0,0,0,0,0,0,0,0,0,0,0,0,0,0.0286,0.0287,0.0323,0.0324,0.0324,0.0378,0.0379,0.038,0.0461,0.0463,0.0464,0.0466,0.052,0.052,0.0521,0,0,0,0,0,0,0,0,0,0,0,0,0,0.0318,0.0287,0.0323,0.0371,0.0376,0.0378,0.0379,0.038,0.046,0.0463,0.0465,0.0467,0.052,0.052,0.0521,0.0479,0,0,0.0521,0.0521,0,0,0,0,0,0,0,0,0.0316,0.0319,0.0364,0.0368,0.0374,0.0415,0.0386,0.0413,0.046,0.0428,0.0465,0.0468,0.0483,0.0487,0.0492,0.0481,0.0484,0.0521,0.0521,0.0521,0.0521,0,0,0,0,0,0,0,0.0314,0.0317,0.0345,0.0364,0.037,0.039,0.0397,0.0392,0.0443,0.0431,0.0437,0.0443,0.0487,0.0492,0.0494,0.0485,0.0521,0.0521,0.0522,0.0522,0.0442,0.0439,0,0,0,0,0,0,0.0305,0.0315,0.0343,0.0347,0.035,0.0389,0.0397,0.0399,0.0443,0.0452,0.0441,0.0446,0.0491,0.0494,0.0497,0.0449,0.0521,0.0522,0.0522,0.0444,0.0441,0.0439,0,0,0,0,0,0,0.0303,0.0306,0.0341,0.0332,0.0338,0.0387,0.039,0.0399,0.0405,0.0451,0.046,0.0437,0.0492,0.0496,0.0483,0.0452,0.0522,0.0522,0.0446,0.0443,0.044,0.0355,0,0,0,0,0,0,0.0302,0.0305,0.029,0.0331,0.0338,0.0326,0.0388,0.0399,0.0405,0.0413,0.045,0.0458,0.0494,0.0482,0.0483,0.0454,0.0522,0.0449,0.0445,0.0441,0.036,0.0349,0.0339,0,0,0,0,0,0.03,0.0264,0.0289,0.0292,0.032,0.0324,0.0328,0.0371,0.0403,0.0387,0.0417,0.0457,0.0456,0.048,0.0481,0.0452,0.0451,0.0446,0.0441,0.0365,0.0351,0.0339,0,0,0,0,0,0,0.0217,0.027,0.0298,0.0274,0.0294,0.0338,0.032,0.0355,0.0366,0.0372,0.0426,0.0433,0.0412,0.0432,0.0457,0.0414,0.046,0.0455,0.0401,0.0388,0.0378,0.0372,0.0522,0,0,0,0,0,0.0196,0.0195,0.0241,0.0215,0.0224,0.027,0.0273,0.0305,0.0327,0.0336,0.0365,0.0384,0.0389,0.039,0.0397,0.0365,0.0373,0.0345,0.0335,0.0326,0.032,0.0303,0.029,0.0422,0.0422,0.0422,0,0,0.0152,0.0181,0.0176,0.0199,0.0218,0.0215,0.0276,0.0271,0.0268,0.0335,0.0323,0.0345,0.0371,0.0347,0.0338,0.0362,0.0286,0.0319,0.0312,0.0311,0.0296,0.0284,0.0273,0.0419,0.0419,0.042,0,0,0.0069,0.0092,0.0072,0.009,0.0119,0.015,0.0145,0.0184,0.02,0.019,0.024,0.0238,0.0245,0.0261,0.027,0.0194,0.023,0.0195,0.0138,0.0121,0.011,0.0101,0.0072,0.0061,0.019,0.019,0.019,0,0.001,0.0008,0.0057,0.0048,0.0056,0.0118,0.0097,0.0112,0.0141,0.0145,0.0172,0.0182,0.0204,0.0184,0.0165,0.0171,0.0166,0.019,0.0108,0.01,0.0092,0.0064,0.0054,0.0185,0.0186,0.0186,0.0187,0,-0.0067,-0.0069,-0.0089,-0.0063,-0.0056,-0.0071,-0.0024,-0.0024,0.0008,0.0036,0.0024,0.0053,0.0066,0.0065,0.0096,0.0049,0.0063,0.0098,0.0145,0.0074,0.0049,0.0039,0.0178,0.018,0.0181,0.0183,0,0,-0.0204,-0.0149,-0.0157,-0.0145,-0.0108,-0.0109,-0.0121,-0.0108,-0.0109,-0.009,-0.01,-0.0095,-0.0062,-0.0052,-0.0018,-0.0033,-0.0097,0.0004,0.0006,-0.0018,-0.0149,-0.0179,-0.0191,-0.0071,-0.0073,-0.0074,-0.0152,0,-0.0282,-0.0299,-0.0254,-0.0283,-0.0286,-0.0226,-0.0236,-0.0216,-0.0189,-0.0187,-0.0158,-0.0156,-0.0111,-0.0105,-0.0117,-0.0087,-0.0123,-0.008,-0.0082,-0.0083,-0.0094,-0.0204,-0.0235,-0.031,-0.0161,-0.0163,-0.0164,0,-0.0375,-0.0362,-0.0391,-0.0353,-0.0352,-0.0362,-0.0347,-0.0345,-0.032,-0.03,-0.0288,-0.0249,-0.0258,-0.0211,-0.0224,-0.0195,-0.0193,-0.0178,-0.018,-0.0181,-0.013,-0.0211,-0.0332,-0.0345,-0.0178,-0.0177,-0.0176,0,-0.0476,-0.0464,-0.048,-0.0471,-0.0426,-0.0435,-0.0417,-0.039,-0.0385,-0.0371,-0.0367,-0.0354,-0.0348,-0.034,-0.0298,-0.0267,-0.0317,-0.0265,-0.0302,-0.0303,-0.0318,-0.0318,-0.0444,-0.0311,-0.0311,-0.0311,-0.031,0,-0.0569,-0.059,-0.0525,-0.0536,-0.0557,-0.0505,-0.0528,-0.0504,-0.048,-0.0485,-0.0431,-0.0437,-0.038,-0.038,-0.0347,-0.0364,-0.036,-0.0345,-0.0337,-0.0352,-0.0355,-0.0352,-0.0347,-0.0313,-0.0313,-0.0312,-0.0312,0,-0.0687,-0.0644,-0.0658,-0.0614,-0.0603,-0.0621,-0.0584,-0.0592,-0.0561,-0.0568,-0.0567,-0.0519,-0.0516,-0.0472,-0.046,-0.0437,-0.0469,-0.0449,-0.0478,-0.0473,-0.0513,-0.0511,-0.0644,-0.066,-0.0514,-0.0516,-0.0517,0,-0.0751,-0.0766,-0.0723,-0.0722,-0.0707,-0.0706,-0.0701,-0.0649,-0.0646,-0.0618,-0.063,-0.0622,-0.0614,-0.0611,-0.0576,-0.0566,-0.0548,-0.0595,-0.0546,-0.0561,-0.0552,-0.0553,-0.0555,-0.0607,-0.0608,-0.061,-0.0611,0,-0.0871,-0.0848,-0.0842,-0.0829,-0.0823,-0.081,-0.0794,-0.0796,-0.074,-0.0739,-0.0735,-0.0728,-0.0715,-0.0709,-0.0692,-0.0674,-0.0634,-0.0626,-0.0635,-0.0652,-0.0669,-0.0663,-0.051,-0.0624,-0.0623,-0.0622,-0.0621,-0.0621,-0.0965,-0.0976,-0.0948,-0.0943,-0.0925,-0.0911,-0.0916,-0.0886,-0.0881,-0.0867,-0.0836,-0.0837,-0.0811,-0.0785,-0.077,-0.0771,-0.0746,-0.0758,-0.0762,-0.0766,-0.0775,-0.0666,-0.0767,-0.0766,-0.0766,-0.0766,-0.0765,0,-0.1085,-0.1063,-0.1059,-0.1037,-0.1034,-0.0994,-0.0974,-0.0974,-0.0975,-0.0954,-0.0947,-0.0942,-0.0936,-0.0899,-0.0889,-0.0896,-0.0878,-0.0896,-0.0896,-0.0893,-0.0796,-0.0791,-0.0911,-0.0911,-0.0911,-0.0911,-0.0911,-0.0911,-0.1147,-0.1163,-0.1137,-0.1145,-0.1122,-0.1123,-0.1115,-0.1102,-0.1085,-0.1083,-0.1077,-0.1052,-0.1025,-0.1012,-0.1005,-0.0994,-0.0994,-0.1019,-0.1002,-0.0913,-0.09,-0.0886,-0.0882,-0.1018,-0.1018,-0.1099,-0.11,-0.1101]}]]